GFSSE_con_3kmhel_069.txt.gz
Helicity
171 132 133 129 150 172 206 229 223 212 183 163 159 163 159 156 141 109 83 59 44 34 34 31 25 18 16 10 8 18 34 33 20 23 30 36 46 55 63 68 57 60 60
253 151 156 131 137 170 215 224 198 179 154 149 151 155 148 140 107 70 57 52 43 45 29 14 -4 -2 9 8 3 12 23 22 17 6 4 26 32 42 46 54 57 61 79
236 177 149 142 161 157 175 186 173 142 121 112 128 138 101 88 68 52 52 53 39 36 21 4 -14 -12 -4 6 15 24 32 26 11 1 -13 15 31 46 58 56 52 62 65
207 198 162 142 121 130 147 148 124 105 99 98 110 99 60 72 52 47 58 63 52 50 26 1 -17 -21 -5 -2 21 38 44 35 17 -7 -4 5 20 37 38 39 41 40 45
204 209 157 137 118 123 121 107 83 73 87 76 110 79 50 66 58 70 83 73 57 46 26 20 16 11 10 22 35 41 47 40 12 7 5 3 12 26 39 37 34 39 37
229 182 146 151 145 130 124 117 109 91 84 84 106 60 50 84 87 91 84 68 61 56 60 46 47 45 33 46 53 63 56 41 14 20 10 5 18 30 40 49 45 41 34
196 156 146 156 156 139 129 101 88 71 53 87 78 54 73 94 93 101 93 72 65 69 71 59 57 49 57 56 71 75 65 48 40 31 20 17 31 43 48 45 44 34 24
188 136 135 114 110 115 116 96 76 48 55 53 89 82 91 99 111 108 79 77 66 67 68 67 71 57 53 73 76 79 74 48 32 40 32 33 41 49 51 50 40 37 41
137 215 227 144 161 197 210 108 92 66 61 51 125 90 99 113 110 99 96 82 80 62 62 98 100 76 83 107 106 104 88 63 44 36 31 30 42 53 60 52 45 41 36
183 346 364 370 375 263 99 126 78 68 67 123 136 95 102 106 99 101 102 95 98 85 113 100 112 150 148 129 127 117 87 65 58 50 37 31 44 79 89 79 65 53 45
282 347 486 410 420 344 252 149 113 65 132 137 112 98 108 98 93 101 83 93 123 123 115 112 145 164 175 175 153 128 92 67 62 57 54 62 74 86 107 88 73 67 61
269 233 227 223 175 162 200 210 -3 43 66 98 86 82 85 78 92 72 80 91 123 146 147 152 151 143 117 89 89 104 80 76 77 82 90 96 91 100 115 105 96 87 85
315 381 351 202 163 118 94 -54 -2 28 60 78 72 69 90 84 72 58 54 75 77 104 103 111 114 101 105 89 97 87 75 71 74 87 106 112 106 97 131 136 127 108 109
569 580 399 164 114 207 148 -13 9 18 86 92 32 10 29 66 47 51 80 86 100 92 129 119 109 110 109 114 104 89 79 77 81 87 99 106 102 99 148 159 145 126 125
156 87 9 -78 -57 -119 -101 -37 -4 36 68 28 17 44 46 53 83 109 112 108 119 107 111 111 109 103 109 105 87 83 88 95 91 78 80 131 145 135 142 165 168 142 118
83 4 -20 72 -178 -126 -66 -15 54 53 38 34 42 38 57 94 106 104 111 112 115 112 116 114 103 101 101 90 101 94 86 83 86 84 82 97 170 227 234 202 173 164 141
-118 -191 -174 -145 -73 -66 -13 37 40 34 41 23 23 43 76 89 84 80 94 111 115 122 130 105 98 80 82 88 101 90 88 94 105 115 105 108 118 173 198 191 170 168 144
-119 -124 -145 25 17 16 35 44 49 43 27 24 36 47 63 66 74 93 114 133 121 117 90 75 77 86 84 98 119 108 95 94 111 100 89 94 110 102 121 170 181 175 145
4 28 37 39 59 48 39 12 25 13 31 29 40 54 77 86 86 110 137 127 101 92 91 83 80 77 84 91 91 87 72 72 92 63 78 102 102 95 114 150 173 168 181
47 63 67 50 4 11 13 21 22 30 40 50 54 72 93 97 111 146 131 121 109 119 102 96 95 71 65 72 60 56 33 34 53 68 75 82 89 83 101 123 126 128 157
15 18 13 -3 11 45 43 44 32 48 65 67 63 70 91 114 117 136 147 140 132 113 118 110 88 55 46 45 30 48 16 20 58 75 73 66 81 65 68 81 72 79 102
47 55 11 23 55 49 47 75 80 93 77 83 77 89 98 114 130 149 152 149 136 149 139 133 77 16 43 39 45 73 107 67 50 62 90 73 95 99 68 70 53 63 75
37 55 50 52 81 79 79 134 141 176 151 132 126 113 96 127 152 162 170 158 145 131 121 109 54 -17 42 52 71 100 94 116 124 128 107 103 121 116 102 78 71 75 90
21 15 20 38 66 86 115 127 144 171 207 140 105 124 135 147 167 188 188 162 166 163 139 62 53 69 106 96 106 103 115 143 149 156 164 155 151 114 106 96 101 96 109
9 35 54 74 100 115 131 129 169 167 191 148 132 161 171 178 191 216 202 207 183 159 186 92 62 68 143 131 126 146 143 155 150 171 152 146 128 112 120 129 125 129 138
37 53 75 97 101 124 138 133 156 171 154 138 131 172 185 188 212 209 234 223 263 267 243 141 80 156 203 155 161 157 153 174 169 154 145 125 131 123 147 170 131 157 178

GFSSE_con_3kmhel_072.txt.gz
Helicity
94 153 129 112 99 136 158 185 199 190 170 167 160 157 134 124 99 85 63 39 26 25 31 29 32 29 28 30 29 25 24 20 23 31 43 58 65 73 82 115 56 56 50
142 148 144 118 121 152 177 194 194 178 167 169 159 159 142 134 100 75 43 26 30 33 27 18 14 17 13 5 6 1 2 -6 -23 -2 -1 25 45 52 59 65 73 53 56
172 175 124 144 136 144 160 179 181 176 170 167 161 170 157 129 89 53 29 26 24 17 1 -0 1 -1 -5 -1 3 8 10 1 -33 -63 -47 23 33 40 43 47 46 50 49
166 183 154 138 124 143 167 174 173 167 170 165 183 169 143 115 70 49 34 29 18 5 -13 -11 -2 6 6 9 15 20 18 -11 -45 -46 3 16 19 29 33 40 52 62 47
149 176 187 158 150 159 169 177 176 167 158 150 159 144 119 99 71 50 43 45 31 15 -0 -15 8 15 22 28 25 22 8 -33 -61 -18 17 21 25 26 37 49 34 39 43
120 154 189 171 168 172 179 183 177 151 131 133 146 121 115 105 77 68 59 52 40 24 24 25 31 33 42 37 35 23 -6 -40 -40 19 25 22 34 35 44 46 45 40 38
121 127 142 152 172 171 169 174 159 135 124 150 125 121 117 110 91 70 67 77 60 36 41 48 46 50 50 48 45 29 5 -27 11 14 16 32 37 40 44 40 36 31 30
136 161 154 114 139 142 155 148 117 103 116 109 101 117 97 113 96 87 98 79 78 63 63 64 66 63 66 68 49 42 17 -42 12 18 17 37 18 38 43 48 46 41 44
103 132 148 91 117 180 157 121 103 113 76 78 106 135 139 117 106 108 92 64 79 88 87 72 78 90 97 66 67 73 42 -10 14 25 11 48 48 46 54 54 50 48 51
260 352 376 286 258 199 134 94 83 100 83 112 138 171 143 118 110 92 65 88 66 89 91 98 123 128 97 93 86 55 23 -17 34 21 37 48 38 57 79 71 68 60 60
321 351 441 454 391 281 104 90 99 77 94 74 147 156 92 85 76 35 106 68 93 97 112 130 110 107 117 107 78 34 -5 37 26 26 59 50 47 71 85 71 69 61 68
312 356 420 511 431 490 286 216 70 45 29 64 127 103 82 70 58 70 76 111 110 126 142 114 103 69 19 44 43 29 47 38 34 36 71 63 69 68 85 92 91 81 88
240 287 529 497 524 341 245 283 336 82 35 92 82 75 76 67 60 56 61 63 52 85 69 57 53 58 74 55 65 63 46 28 36 49 92 73 66 67 105 131 120 102 94
288 320 379 323 249 315 120 191 204 -18 3 81 93 70 47 56 38 51 60 56 57 56 73 63 70 85 78 79 74 65 51 47 57 65 112 102 88 90 122 142 127 109 96
414 633 778 463 272 138 68 15 3 4 31 30 35 46 15 34 58 65 63 65 72 53 61 82 84 78 79 75 60 50 54 65 69 78 104 117 144 142 134 151 150 135 114
320 220 106 100 227 209 182 13 -135 -37 6 35 26 17 51 53 61 75 68 73 69 66 81 85 82 72 71 51 54 67 82 81 87 84 89 106 134 177 206 189 162 158 138
96 96 52 -113 -104 -120 -97 -74 -23 29 13 1 36 59 56 61 67 64 57 67 86 104 102 93 83 65 59 59 72 78 77 76 87 91 85 97 94 126 159 192 215 195 154
-7 -85 -200 -150 -85 -51 -34 22 31 -0 1 10 47 36 42 52 56 55 72 81 97 88 88 86 74 71 69 70 69 80 78 84 91 92 97 91 88 81 118 151 167 171 175
-67 -90 -90 -29 42 24 -20 -11 11 -1 31 32 34 21 34 40 45 73 83 109 98 98 95 87 86 69 64 62 77 76 74 76 88 94 87 71 81 71 67 139 109 115 153
-4 7 8 21 32 -20 -37 -24 -6 -2 11 27 24 26 51 48 47 70 98 122 112 112 106 100 97 98 78 53 33 61 68 60 71 58 58 48 76 75 63 95 110 125 147
44 53 51 38 25 -42 -46 -35 -21 -9 13 26 26 39 52 59 77 93 123 136 126 115 119 115 120 91 57 20 -28 44 86 50 52 61 79 70 75 79 111 97 76 95 96
51 30 24 27 -6 -18 -21 -6 8 26 24 28 43 58 64 76 89 104 142 144 133 140 133 131 98 88 63 29 27 45 76 124 113 57 78 93 91 82 94 93 98 80 73
28 42 32 11 7 -0 2 22 39 60 51 49 60 92 75 95 112 120 138 158 159 147 159 157 133 103 47 50 25 66 111 129 173 171 133 111 120 86 98 80 91 89 79
25 12 7 -17 -25 -7 16 45 49 49 56 64 97 102 93 108 120 126 144 172 167 164 179 191 167 115 88 73 74 48 133 139 156 182 185 129 130 84 72 74 84 104 101
15 1 -10 -2 7 28 50 55 68 66 79 116 186 132 90 123 116 130 146 181 170 169 228 224 186 165 170 106 96 127 136 134 128 154 159 149 121 94 111 118 118 131 120
36 26 40 49 51 69 71 85 93 99 128 135 177 177 130 105 127 140 156 184 212 248 288 205 132 95 88 122 156 139 149 175 184 188 175 142 134 87 118 133 127 132 167

GFSSE_con_3kmhel_075.txt.gz
Helicity
159 139 155 141 139 126 137 145 141 146 143 140 131 111 99 87 80 66 39 22 19 17 19 11 12 18 22 24 20 14 6 6 10 21 42 63 71 77 89 128 58 54 61
228 136 146 150 159 144 146 153 158 162 155 152 145 123 105 96 86 57 26 16 11 10 11 9 13 17 15 8 10 10 -3 -23 -16 5 -10 26 58 61 63 62 63 54 63
148 147 136 166 151 130 147 165 167 173 162 152 140 132 110 111 76 47 30 17 12 10 11 14 19 21 18 16 8 -8 -44 -75 -87 -83 -20 12 26 44 49 52 57 48 50
136 138 160 167 155 132 160 175 187 184 170 145 140 128 127 98 63 50 44 25 12 10 10 18 28 23 14 1 -11 -38 -65 -62 -67 -80 14 25 22 40 44 32 43 53 33
170 119 178 167 171 156 179 189 194 183 160 141 141 132 124 79 64 66 64 34 21 8 9 18 21 16 10 -7 -22 -53 -75 -74 -78 10 50 45 24 30 42 54 41 40 39
158 146 218 194 201 169 195 195 196 174 155 147 144 142 108 72 86 88 81 58 41 8 5 22 22 17 13 1 -19 -50 -78 -78 -51 22 36 30 28 30 36 37 35 39 45
137 304 168 202 197 182 210 194 184 171 166 165 161 146 105 85 104 112 113 93 67 50 43 35 33 30 29 17 -9 -39 -58 -23 7 1 64 47 23 30 33 31 29 27 29
177 239 185 178 218 181 188 182 186 174 167 168 159 145 114 109 100 108 110 99 79 72 58 56 56 55 44 32 12 -23 -55 -61 -12 -1 47 79 33 42 46 42 42 39 44
165 217 230 170 209 235 218 214 175 153 136 124 114 109 121 119 121 111 114 95 94 72 91 81 79 76 52 45 24 -6 -24 -28 -3 19 55 71 43 49 53 48 50 53 53
218 86 245 241 195 194 175 269 251 193 148 130 118 111 175 127 132 102 109 110 105 96 85 81 96 70 63 52 25 -3 -40 -30 13 6 95 41 18 51 71 62 51 49 52
359 449 414 382 344 418 240 157 157 132 114 85 83 105 116 117 87 84 115 103 85 93 80 79 71 67 69 49 28 -14 12 18 15 35 81 56 45 53 71 68 62 62 65
241 389 463 429 567 542 460 292 123 77 54 20 42 55 112 115 63 91 97 95 100 107 72 63 47 19 -16 21 20 -0 36 27 32 44 70 65 62 64 90 98 90 84 83
274 346 364 412 581 378 148 204 157 61 17 30 11 71 71 101 83 65 47 71 69 42 56 47 18 14 54 46 51 53 35 22 29 54 83 77 66 76 112 128 112 98 87
314 387 381 389 376 547 508 608 366 331 148 118 7 20 83 62 45 41 51 50 40 41 43 52 55 53 55 70 76 62 49 43 47 72 72 92 91 101 127 129 113 103 93
332 411 498 602 453 438 254 366 295 325 258 -5 -36 8 22 40 32 21 60 35 58 66 42 60 59 66 82 71 48 33 36 43 45 63 115 99 115 136 127 140 129 117 108
411 447 530 352 319 226 82 180 183 210 50 -11 -18 21 71 63 45 58 73 70 60 24 51 70 74 67 63 49 42 42 55 71 69 65 106 118 112 153 179 173 150 137 117
386 629 507 399 346 325 139 139 191 41 -69 -58 -4 44 32 46 69 71 55 49 46 94 121 116 84 68 58 39 41 49 55 57 76 73 74 112 114 116 142 159 181 187 162
196 165 176 115 1 -44 -114 -177 -155 -113 -60 31 29 11 8 38 32 34 42 60 92 93 96 80 68 67 53 60 66 56 57 65 80 71 93 119 128 126 154 154 145 130 146
73 107 42 -119 -122 -104 -40 -16 51 9 47 13 9 -2 -15 24 25 38 70 100 84 99 89 80 78 70 82 77 47 38 58 61 85 93 112 120 101 106 100 183 106 78 113
-65 -79 -49 -48 5 -1 -34 -27 -28 -35 -34 -30 -50 -31 20 36 37 58 97 93 89 97 107 100 98 101 103 99 57 65 42 44 64 89 97 91 112 110 73 126 115 121 96
-42 15 11 6 -4 -11 -17 -6 -14 -13 -31 -20 15 22 32 41 55 70 88 76 87 109 118 116 123 112 107 89 41 30 27 112 52 81 112 104 119 108 138 102 86 109 92
60 47 30 30 -2 -12 -20 -17 -19 -12 -6 -4 18 34 40 79 74 71 85 82 99 124 137 133 121 128 114 97 61 25 40 100 146 84 102 120 151 119 99 111 128 96 71
46 9 9 -5 -11 -16 -27 -27 -2 27 21 30 35 55 69 73 78 72 96 106 108 135 137 137 142 138 119 125 74 101 62 106 193 148 181 187 176 131 128 108 87 92 81
32 35 5 6 8 -2 -27 12 19 58 41 39 67 102 99 134 93 72 97 115 128 129 148 146 182 199 175 149 135 53 81 93 164 206 175 189 171 139 125 113 89 91 94
31 23 20 -8 -8 31 24 -6 59 28 40 102 156 111 120 130 94 84 105 123 130 144 178 192 256 187 212 173 145 94 130 142 140 139 157 159 156 137 133 147 175 141 117
65 50 36 25 24 46 98 40 91 57 111 166 179 141 139 155 143 131 117 129 138 149 255 238 223 223 146 106 88 101 154 166 158 171 192 201 208 145 117 127 142 156 131

GFSSE_con_3kmhel_078.txt.gz
Helicity
190 230 217 203 199 189 175 145 127 98 94 93 109 106 93 79 59 46 33 20 17 24 33 35 36 42 42 31 13 -9 -21 -24 -11 23 53 64 68 75 73 66 43 47 77
276 228 190 188 184 192 175 152 135 109 104 107 119 117 98 74 54 30 28 18 20 27 29 26 24 25 19 -1 -29 -50 -60 -65 -60 -41 14 52 53 53 48 43 31 31 51
182 211 184 172 179 182 176 162 147 121 111 114 129 117 96 74 46 27 25 30 35 24 21 17 14 15 4 -14 -40 -45 -44 -72 -110 -95 -31 -18 25 46 45 47 49 37 48
65 167 148 183 190 182 184 170 145 126 118 127 129 119 95 73 43 37 37 39 29 21 13 15 16 21 16 -20 -56 -41 -47 -57 -38 44 13 1 10 36 38 38 41 46 45
24 138 145 203 214 199 191 180 154 131 136 136 128 117 100 76 48 50 48 44 27 26 26 23 27 27 -0 -43 -59 -61 -65 -67 -18 79 100 38 -4 21 36 38 33 36 44
82 132 202 222 191 149 172 187 152 134 139 135 133 125 102 80 64 65 59 36 28 37 36 36 37 19 -14 -20 -41 -43 -23 11 -63 46 37 17 -3 26 33 29 31 38 44
98 199 169 170 173 162 178 185 147 146 147 142 139 134 110 107 109 98 82 59 40 61 46 41 34 20 -4 -14 -23 -23 43 133 73 108 55 1 -5 29 29 29 31 34 41
183 234 237 206 214 210 207 207 157 157 152 146 151 137 126 114 117 101 93 109 99 84 57 44 40 34 23 -2 -4 -20 21 46 9 73 23 6 33 42 39 35 37 42 46
420 234 285 169 192 228 274 208 172 168 159 161 146 126 126 109 124 112 103 101 109 81 65 59 61 41 28 18 -12 -9 27 89 60 152 94 9 30 49 46 37 36 40 49
-80 132 439 191 248 306 294 296 271 228 197 186 140 125 119 93 127 125 110 87 87 81 72 67 60 42 43 16 -11 -9 22 64 41 67 56 41 26 58 61 43 40 36 43
220 199 69 90 307 279 274 255 230 189 173 142 102 93 89 112 124 128 98 108 109 80 71 53 53 31 31 4 -13 11 25 40 91 48 41 68 43 59 79 67 59 50 54
161 263 294 273 350 355 301 249 190 147 113 71 75 97 35 121 121 113 114 109 100 79 69 31 26 13 21 -10 -0 8 33 50 61 49 37 69 66 59 100 83 72 68 70
191 339 359 402 524 600 606 490 365 439 194 84 113 55 45 101 70 121 87 117 71 68 51 28 34 21 19 74 51 67 39 50 78 71 44 73 70 62 113 92 90 89 91
266 312 428 475 537 563 703 770 411 477 399 92 39 -25 51 53 46 39 78 67 18 49 40 45 67 58 60 79 57 44 56 68 70 62 35 63 86 112 129 119 115 106 104
267 322 372 393 532 610 385 371 307 274 243 131 -26 41 49 9 29 -4 47 27 12 68 76 76 69 50 76 74 50 40 25 27 49 66 43 72 108 154 158 140 129 119 111
395 378 393 404 448 335 405 389 345 221 87 -13 -22 19 -7 -9 7 34 58 25 127 98 58 69 65 71 43 65 55 45 44 57 65 120 74 74 110 161 171 164 158 131 113
377 538 589 717 891 941 694 495 320 84 31 8 -19 -12 -13 1 47 64 87 114 67 27 103 132 92 94 77 67 53 11 22 28 64 64 150 100 112 142 145 171 187 183 172
264 272 383 399 346 309 262 304 219 109 127 151 61 -31 33 17 82 45 69 46 88 154 157 113 81 68 47 45 69 63 68 58 79 37 83 178 184 198 184 148 134 132 132
207 210 213 33 76 101 90 95 57 104 98 -67 -80 23 9 -1 -24 40 38 99 144 100 113 91 81 62 67 71 65 79 80 50 77 45 123 126 136 167 167 158 114 102 106
66 30 -76 -115 -154 -152 -146 -190 -139 -51 -13 15 -7 1 -23 2 -14 3 74 149 109 103 120 83 100 90 91 112 83 114 111 93 54 103 112 113 133 196 129 170 154 132 123
-81 -117 -104 -75 -71 -63 -98 -69 -23 -4 -13 -60 -77 -49 -18 -4 18 50 144 139 85 107 123 138 129 123 126 109 81 39 53 195 163 115 94 95 131 175 170 207 146 125 133
-95 -60 -44 -14 13 -2 -7 -7 -12 -14 -26 -41 -30 -14 13 36 39 89 149 132 78 162 202 150 124 111 154 168 122 75 55 141 157 111 85 113 170 207 161 135 181 211 153
46 23 29 49 54 33 8 -56 -26 4 12 -0 -20 30 65 75 85 99 137 143 116 197 206 137 125 151 153 193 137 105 80 119 137 137 175 161 245 254 191 159 142 146 141
66 65 18 -0 54 8 -36 8 22 42 68 35 55 70 100 93 104 91 145 168 151 202 180 161 141 196 220 293 224 105 113 152 125 169 163 196 211 222 214 175 143 163 163
101 49 -5 -2 35 26 -21 -25 57 102 83 82 103 141 197 144 154 193 157 160 235 214 194 179 234 260 223 214 191 169 136 176 148 184 191 170 186 192 239 254 212 213 246
85 103 35 -17 72 84 69 51 33 116 87 129 206 222 198 193 186 111 178 247 220 189 251 314 322 262 229 186 145 161 160 154 170 190 224 234 255 223 187 193 179 175 187

GFSSE_con_3kmhel_081.txt.gz
Helicity
230 179 182 253 181 184 182 166 156 142 140 126 132 129 115 94 76 72 70 63 59 62 64 62 56 43 32 26 8 -7 -4 12 28 39 58 67 63 61 58 62 55 40 60
133 135 197 309 197 188 175 174 162 145 126 122 113 120 101 78 72 61 49 62 65 66 67 62 41 23 25 21 0 -16 -18 3 22 31 36 50 46 41 44 39 42 37 48
174 193 73 171 213 188 181 181 161 138 117 107 112 112 89 74 70 54 56 65 61 64 52 39 27 13 22 24 8 -21 -46 -17 -19 -6 0 -5 11 34 34 37 36 36 41
273 144 124 174 193 176 174 172 143 127 118 105 115 96 83 77 68 50 60 54 50 53 40 31 12 10 22 16 7 -8 -12 12 45 21 -23 -7 3 35 35 37 41 43 42
156 342 -45 104 157 166 169 168 142 125 113 111 98 92 87 81 64 56 60 51 44 48 34 20 6 10 15 8 16 18 15 33 51 11 -7 -19 -14 19 32 32 31 42 52
58 268 -44 39 162 162 170 156 138 136 126 112 110 105 95 73 70 69 59 55 56 40 28 22 29 36 40 30 53 80 114 126 56 26 -14 2 -17 26 31 41 48 50 50
-30 117 59 136 187 168 154 140 157 152 139 124 115 112 101 75 59 58 60 61 54 36 35 42 46 39 36 35 72 143 190 138 27 -17 -32 -31 -6 29 30 30 33 36 45
268 163 126 124 168 190 176 186 176 152 135 130 125 123 117 100 75 65 66 73 62 46 52 54 45 46 43 45 93 171 156 86 34 -17 -35 -31 31 40 36 35 36 37 45
232 209 415 181 143 214 222 210 189 167 149 137 143 151 140 112 101 102 97 83 71 66 62 61 46 38 48 49 111 144 144 145 34 0 -10 -20 36 42 35 31 30 36 47
111 63 9 389 289 312 282 238 217 196 170 147 154 155 128 113 106 102 90 74 71 63 64 64 52 33 34 57 92 118 144 107 55 22 6 -6 37 45 37 30 27 30 42
2 47 120 366 539 389 288 254 217 193 176 171 168 154 139 123 114 100 73 84 64 66 56 76 14 28 29 53 70 81 91 44 24 -2 10 41 42 52 49 38 35 45 60
101 62 22 13 375 337 224 208 205 200 195 160 141 143 147 122 72 71 79 94 87 74 81 8 46 47 60 52 47 70 85 39 25 14 7 52 45 65 62 52 54 69 80
64 149 172 170 54 174 255 269 264 266 170 144 169 143 132 119 112 111 133 98 79 77 60 66 67 38 61 53 51 71 87 38 28 8 9 46 49 79 83 81 85 92 92
144 193 259 303 325 294 355 402 329 529 455 402 191 209 126 145 77 127 113 64 66 60 70 39 53 66 79 42 38 62 73 19 37 21 13 32 37 105 106 104 106 106 102
241 252 394 512 484 443 517 596 638 505 641 255 115 63 47 52 0 85 44 46 43 84 43 49 82 84 76 68 58 54 59 67 43 34 -3 37 73 111 115 119 113 104 100
218 286 356 539 633 558 562 763 458 300 230 290 236 68 101 -22 33 28 12 25 65 21 41 79 83 81 65 53 53 49 52 55 33 32 17 21 74 120 138 140 131 118 110
268 305 316 371 465 433 678 255 268 256 284 298 262 125 -33 -26 -16 33 38 85 55 68 84 84 91 86 64 42 35 34 36 54 48 43 44 65 77 116 143 150 146 136 140
295 369 313 308 353 584 554 557 338 307 400 368 269 -64 -28 57 -24 80 84 73 91 96 114 123 108 89 55 50 38 16 22 44 46 75 41 76 87 107 130 132 119 101 104
246 229 249 390 455 523 663 400 329 326 263 172 50 -83 2 56 54 46 81 99 128 126 154 139 105 80 59 60 51 61 78 78 51 63 91 106 105 135 127 118 120 99 104
110 136 156 129 200 170 120 72 120 84 28 -6 -77 42 45 25 11 3 84 138 112 146 140 139 108 86 79 83 99 80 64 66 78 96 90 85 87 139 119 143 145 109 130
-19 60 94 44 25 21 -12 -32 -84 -84 -66 -55 -95 -42 -42 -26 -28 -21 51 102 109 155 141 131 127 154 144 103 100 89 83 64 124 127 117 93 92 127 185 169 132 166 160
-95 -126 -110 -85 -100 -116 -99 -116 -67 -100 -95 -82 -58 -53 -31 -16 -22 56 106 105 158 168 154 163 189 178 150 121 128 113 123 108 96 101 110 100 84 142 192 179 164 192 161
-90 -98 -58 -53 -41 -56 -71 -67 -56 -67 -61 -25 -29 -14 9 -2 -2 101 136 160 165 206 215 190 195 185 192 145 131 142 130 91 114 133 108 121 137 172 184 203 195 170 169
-76 -67 -9 6 32 -1 -18 -41 -35 -31 -5 -2 5 -4 19 69 64 91 160 172 223 263 272 236 202 204 241 225 190 128 148 138 161 146 157 165 163 158 192 209 206 176 145
27 -7 3 13 11 7 8 -8 -47 17 65 54 36 47 74 96 95 108 156 185 247 310 267 214 231 249 276 295 235 207 184 182 161 154 121 88 138 190 206 236 226 214 188
104 76 49 43 60 59 56 36 -21 34 118 123 107 140 170 167 148 142 205 263 235 320 278 245 267 312 278 271 270 248 242 244 214 215 202 153 170 151 170 190 170 161 162

GFSSE_con_3kmhel_084.txt.gz
Helicity
162 106 48 254 176 336 368 259 160 187 187 178 148 133 123 126 145 152 134 118 91 81 65 65 68 73 72 69 62 59 52 46 41 39 50 63 64 61 61 54 50 41 61
97 127 127 186 356 242 179 202 182 178 179 184 184 171 159 156 156 118 104 92 94 73 66 56 65 72 77 72 60 49 43 34 35 40 38 49 49 48 46 53 46 39 60
166 292 233 158 325 207 191 202 167 151 170 177 154 142 136 130 119 92 97 90 75 60 64 86 100 86 65 34 12 36 46 20 26 27 27 0 11 39 37 39 39 44 50
131 158 359 343 212 148 182 194 163 167 164 139 124 118 115 113 92 89 84 83 80 80 87 86 78 66 51 23 7 35 50 32 43 20 -4 0 7 35 37 37 43 54 57
41 224 259 278 270 75 165 174 147 138 135 118 116 113 115 122 95 92 92 90 97 87 79 77 71 62 56 33 6 22 77 45 25 -9 -17 -20 -17 18 33 36 34 49 56
66 137 325 167 332 102 146 158 145 151 139 128 115 113 126 96 95 88 84 95 81 79 68 66 64 74 94 67 32 91 63 25 5 -40 -28 -1 -14 23 26 29 32 40 44
78 129 216 175 235 203 101 176 158 159 155 134 114 121 116 87 79 73 79 84 79 66 64 58 76 95 139 124 127 110 59 34 -4 -29 -42 -32 -18 20 26 30 34 39 43
158 288 192 249 87 249 175 212 194 190 162 129 128 109 98 90 83 89 85 72 61 55 59 72 84 99 144 136 112 82 65 41 -15 -42 -47 -25 12 22 24 25 31 34 41
183 355 249 300 99 150 79 272 230 202 174 137 115 121 106 100 103 88 87 74 63 70 73 73 81 110 168 148 110 113 83 21 -37 -47 -28 -22 26 23 24 23 23 29 38
168 64 109 151 205 -1 616 306 231 210 169 161 153 144 126 133 121 95 76 66 74 71 67 76 85 118 164 184 121 114 90 45 -1 -30 -43 -19 21 24 19 16 17 22 33
98 77 93 68 36 43 454 303 320 163 187 179 195 187 158 114 104 94 62 59 57 65 53 59 94 139 146 150 99 106 80 19 -1 -21 -31 17 27 30 21 21 27 31 34
80 -23 -18 55 406 735 380 329 170 187 205 188 198 194 165 148 104 91 72 62 74 78 83 98 108 130 83 114 94 83 41 20 1 -11 -9 15 29 37 36 33 34 45 53
-9 53 25 105 148 620 439 238 245 227 203 212 200 187 177 196 114 108 81 99 80 93 93 96 136 44 70 97 89 57 39 20 9 -5 -5 16 39 40 40 44 54 61 69
9 36 67 34 69 100 196 243 218 251 292 229 187 180 215 256 107 75 85 88 58 107 115 110 74 59 82 77 81 57 31 21 22 8 -1 14 3 47 56 65 71 76 82
110 76 75 125 174 182 83 166 234 229 198 180 192 227 154 213 136 76 86 48 100 107 78 90 77 64 70 83 87 56 30 29 29 20 10 12 60 56 71 78 80 82 75
153 158 172 199 229 232 236 220 317 350 414 310 333 281 140 224 76 67 37 54 91 82 74 91 66 55 70 87 69 64 44 30 38 39 20 16 66 84 94 93 100 99 83
145 206 296 342 353 407 376 326 393 546 531 292 322 128 103 56 26 46 -12 61 68 82 87 102 86 80 95 85 59 57 44 41 36 36 36 34 54 82 98 103 104 111 97
221 282 316 452 440 536 411 299 482 475 347 291 229 211 77 46 2 -22 43 47 76 106 100 102 90 91 91 62 54 40 43 48 52 49 37 29 52 67 70 88 89 93 88
158 218 282 260 358 451 317 455 522 411 458 413 375 327 310 5 -25 40 14 90 114 106 105 117 96 122 75 60 44 43 57 47 49 62 59 51 67 66 59 54 70 92 95
139 166 309 277 378 311 528 627 702 589 331 278 276 239 89 63 -8 53 107 87 104 134 124 139 138 113 92 66 67 66 54 43 67 82 87 67 72 71 68 62 84 93 83
112 84 123 222 230 250 230 232 122 72 16 28 47 23 -25 -71 52 76 91 106 125 142 132 148 161 157 145 128 148 99 64 59 74 89 120 109 101 92 85 79 83 97 98
17 21 17 39 54 84 129 90 -25 -69 -16 -23 -45 -62 -34 -40 -37 64 -8 15 89 120 154 204 237 234 202 169 163 156 122 112 100 92 106 125 115 130 121 99 128 135 134
31 40 -2 -37 12 23 35 -21 -69 -9 -11 -114 -118 -132 -116 -98 -38 -69 15 78 110 146 197 217 239 268 258 207 195 200 206 158 162 143 115 129 128 140 133 138 139 151 156
-30 -6 -21 -15 -9 -18 -48 -84 -95 -121 -131 -182 -217 -216 -184 -167 -131 -71 -30 77 87 161 210 229 238 253 279 262 237 212 218 226 207 184 176 178 163 146 136 141 172 186 192
-32 -31 -71 -49 -50 -70 -87 -91 -65 -85 -146 -150 -158 -138 -117 -83 -36 -2 44 120 181 193 200 282 295 290 302 301 317 291 286 265 245 249 203 181 225 210 212 208 227 259 241
-50 -9 -31 -16 -22 -33 -43 -45 -28 -24 -52 -68 -39 -12 -3 12 37 46 99 157 187 210 257 243 305 349 356 342 360 332 297 262 249 284 253 218 220 172 176 199 217 212 199

GFSSE_con_3kmhel_087.txt.gz
Helicity
68 87 89 68 155 175 316 475 266 256 237 265 283 278 248 220 196 166 139 132 131 121 117 117 104 98 97 83 62 56 57 60 58 52 55 55 53 58 57 57 55 34 65
81 135 184 263 348 317 466 329 258 347 207 214 235 247 226 204 169 139 140 146 145 130 119 109 99 100 87 73 68 54 49 51 48 41 45 53 52 53 54 50 43 54 56
57 153 222 305 268 265 375 371 290 158 263 187 199 179 155 154 152 154 162 153 134 119 106 96 88 79 66 75 52 54 56 53 46 32 29 2 17 43 50 54 49 56 76
112 105 105 279 408 284 223 220 221 205 172 139 114 130 149 163 166 161 169 158 126 113 96 80 66 48 49 69 39 46 44 42 41 16 -2 -4 11 47 41 47 51 64 64
151 167 115 149 271 258 315 171 204 206 169 164 140 154 168 168 159 153 154 130 113 96 89 82 66 36 25 49 56 31 30 30 21 11 -5 -8 -8 24 33 37 41 52 58
75 162 170 213 260 380 388 339 142 198 186 184 153 151 158 152 160 165 145 125 103 119 112 108 69 17 19 38 53 33 40 30 -4 -19 -13 -2 -21 19 22 26 32 44 50
49 134 225 230 295 259 247 382 118 150 208 214 155 148 136 137 144 146 152 128 109 119 128 113 80 71 87 89 65 42 17 -1 -44 -37 -28 -32 -11 22 26 29 36 43 49
60 82 217 235 274 194 239 308 182 97 204 189 170 144 126 130 106 132 154 120 119 130 145 143 111 71 94 87 65 25 7 -17 -40 -41 -27 -28 8 16 25 26 27 34 40
146 113 222 293 209 194 230 408 375 102 175 185 153 142 138 116 105 95 124 135 131 130 143 149 133 82 68 72 46 40 28 3 -28 -27 -12 -25 20 19 17 18 22 25 33
108 104 119 209 204 178 129 162 205 202 156 201 170 184 154 137 110 94 117 122 117 119 148 164 121 72 71 69 64 54 18 3 -30 -35 -41 -31 16 13 10 8 7 19 36
-45 -15 -19 29 186 192 232 243 311 187 171 216 210 197 177 115 102 101 112 101 101 127 171 170 164 125 119 98 89 66 50 -0 -18 -38 -41 1 19 17 12 13 5 14 20
32 7 -13 55 204 143 262 296 280 236 248 157 208 187 170 112 99 113 92 86 102 138 180 204 150 129 93 81 81 51 37 15 -7 -29 -35 10 18 23 20 20 17 26 27
46 47 -16 -111 95 224 231 324 545 253 135 183 259 209 134 120 130 137 133 97 89 133 161 159 126 106 93 66 61 48 56 32 5 -11 -18 5 22 26 33 34 27 27 30
58 -0 25 21 86 358 365 334 600 284 102 182 216 191 135 139 184 151 115 70 115 123 158 106 126 113 128 71 47 64 53 33 7 -7 -10 8 34 32 32 34 31 32 44
43 16 47 -43 31 143 708 575 404 208 114 170 209 168 160 149 193 144 129 89 109 133 119 128 118 132 123 77 69 59 51 36 20 6 -0 -0 39 33 34 41 36 37 48
40 26 24 52 22 120 87 217 187 159 142 212 199 147 144 133 161 147 165 71 147 123 84 125 88 108 97 75 52 45 43 26 29 34 41 39 56 38 40 40 48 51 55
43 64 60 69 102 77 103 93 123 143 181 205 193 170 223 161 128 193 140 66 138 90 103 143 104 123 121 81 73 62 43 30 31 36 47 62 50 59 61 64 69 69 73
76 89 126 95 131 156 145 137 85 176 227 217 193 188 175 139 120 192 136 75 121 107 122 105 99 134 115 66 73 69 55 33 35 47 48 39 39 52 66 73 72 65 68
94 142 174 241 271 258 323 363 230 284 325 264 316 309 195 131 110 135 103 99 115 113 96 113 123 130 98 84 85 71 54 40 56 48 41 40 42 60 58 48 59 57 46
139 211 255 332 354 321 378 295 342 329 475 354 322 285 214 179 115 159 72 48 79 90 110 138 132 121 97 90 113 90 58 60 71 62 55 56 54 60 59 51 65 53 46
102 121 100 217 284 331 410 223 308 496 488 514 343 304 189 276 121 40 -6 46 78 76 99 114 156 144 125 131 167 131 105 85 76 76 72 77 84 88 81 73 67 71 63
86 116 121 136 184 316 312 255 413 440 540 173 263 203 259 92 -0 -41 -55 -62 102 124 126 159 202 176 145 150 181 178 133 128 105 96 122 116 78 111 100 85 101 95 89
62 49 45 77 110 80 99 140 147 283 190 -0 30 83 64 36 36 71 -3 89 93 83 146 169 184 220 220 177 200 196 192 146 155 177 154 142 119 122 118 124 118 117 101
68 63 60 72 55 14 37 8 42 14 -21 -85 -118 -68 -41 -39 -53 -20 -25 -0 60 114 138 140 179 236 302 286 246 255 278 231 217 202 189 186 178 153 166 178 181 165 166
45 42 32 46 34 -6 -33 -12 4 -1 -66 -115 -164 -246 -172 -145 -113 -92 -0 22 57 93 133 175 228 233 279 310 356 340 331 350 316 274 252 190 218 198 204 211 202 197 197
61 30 28 33 3 -21 -51 -70 -104 -89 -96 -119 -186 -245 -217 -156 -99 -73 37 47 53 102 167 208 245 235 227 290 370 394 378 333 335 327 304 215 236 255 244 242 217 182 201

GFSSE_con_3kmhel_090.txt.gz
Helicity
144 215 196 125 187 248 196 271 278 369 333 268 260 247 222 218 214 214 199 173 166 144 113 99 87 74 80 78 69 68 79 88 72 69 69 64 63 61 56 44 41 36 60
137 147 197 147 184 304 232 276 365 411 402 336 226 221 245 247 240 217 203 187 176 157 130 101 88 75 74 72 70 66 76 77 66 60 59 62 54 52 55 65 56 43 61
144 250 206 119 202 159 222 266 335 322 320 250 252 242 240 232 237 218 203 190 183 152 111 97 84 87 83 67 56 65 68 62 52 51 39 19 29 57 51 49 62 65 66
135 217 257 215 168 175 289 281 290 298 316 219 217 216 222 228 228 224 205 196 184 140 95 79 95 85 68 48 35 48 48 44 35 24 23 28 30 46 46 51 66 68 67
127 211 189 225 219 271 286 293 299 226 212 227 201 215 209 206 204 198 190 181 147 112 88 71 59 54 24 23 32 40 40 38 35 20 14 4 13 33 44 57 62 64 62
140 205 216 210 224 287 349 334 252 250 147 236 201 186 169 180 190 176 179 168 136 103 77 43 35 32 35 28 29 32 26 19 22 -0 4 18 5 37 41 50 53 54 54
106 132 107 207 161 229 256 254 292 312 186 154 159 144 163 186 174 174 164 170 165 112 55 20 20 37 39 27 14 5 -5 1 -7 6 12 -2 12 36 36 39 42 42 41
61 90 131 258 49 135 173 319 296 335 182 165 128 162 205 191 186 178 181 183 146 108 66 31 46 54 42 21 9 5 5 4 -5 4 1 -9 24 28 31 30 33 40 46
44 43 80 194 124 146 172 256 351 358 430 190 149 214 194 208 207 193 197 184 141 110 82 69 74 66 46 34 22 7 -2 -2 -14 -16 -1 -17 21 28 31 29 28 33 38
34 48 88 199 208 180 237 308 427 461 416 187 130 186 250 238 218 179 195 180 155 112 73 52 50 59 52 28 18 22 19 15 5 -5 -11 -13 14 20 19 16 20 20 26
54 78 72 142 202 217 195 312 444 384 354 167 203 241 279 269 205 175 183 178 152 116 99 86 83 80 82 53 48 44 27 -2 -19 -18 -21 14 18 22 9 11 9 14 22
-52 -17 20 14 84 167 163 229 368 512 350 265 201 150 271 253 147 161 198 195 138 132 125 101 108 121 99 61 42 47 27 -12 -24 -19 -22 11 20 22 12 6 11 21 20
29 73 59 50 90 110 148 360 671 556 404 437 221 123 239 221 195 221 264 235 158 147 132 117 101 82 91 46 36 66 42 -4 -30 -13 -8 14 16 19 12 5 15 23 23
62 100 70 49 -57 31 234 236 551 565 330 254 130 103 226 241 226 233 227 194 137 126 144 106 106 97 80 40 82 60 21 -2 6 -4 -12 27 10 25 20 19 16 23 30
10 38 29 -13 -31 1 198 507 632 322 339 135 141 114 209 235 214 193 172 167 171 145 138 120 127 92 60 73 75 52 18 25 18 9 -2 27 13 23 26 32 29 32 45
32 26 12 29 84 267 160 533 639 258 258 236 160 171 204 201 190 163 160 158 167 145 120 109 119 84 82 82 76 43 34 35 34 24 11 17 28 15 30 26 40 42 48
33 42 43 28 102 217 371 420 314 308 202 255 100 122 159 215 171 162 130 132 136 155 139 184 140 139 127 91 76 56 39 35 40 34 40 52 43 41 32 39 42 46 52
50 43 66 43 70 102 239 417 381 293 261 235 163 132 162 151 158 199 152 133 250 138 141 174 129 152 105 93 92 51 37 41 39 36 48 55 48 51 64 77 60 52 47
59 48 79 89 85 95 38 190 211 159 174 163 166 210 133 203 153 143 106 172 169 136 153 158 133 149 100 87 84 63 49 54 47 51 45 47 49 55 60 53 60 49 48
107 78 97 112 172 195 185 160 213 226 140 121 145 164 209 192 168 134 152 112 175 133 135 133 132 129 94 106 112 87 81 81 73 56 47 60 56 55 60 62 68 61 52
69 101 113 160 188 178 230 245 237 200 142 143 146 221 392 150 150 135 116 117 115 92 99 118 149 136 147 141 149 112 98 93 77 74 89 82 85 72 69 82 87 80 61
44 73 84 133 260 174 290 302 333 273 240 296 467 375 278 329 135 112 146 104 99 92 94 124 163 178 152 155 151 141 99 103 87 105 125 124 111 116 91 85 103 93 89
73 78 63 90 171 220 257 381 204 307 310 344 445 385 233 81 71 156 60 63 72 78 91 107 142 195 204 155 167 163 143 122 158 180 145 156 153 144 121 120 115 123 133
32 34 67 93 136 220 274 264 185 223 268 253 314 180 210 150 64 165 53 58 60 82 86 129 173 188 214 242 221 197 207 163 150 153 172 169 167 162 155 155 162 152 168
75 33 27 60 94 140 158 162 114 117 86 183 196 151 -64 -83 81 32 43 57 51 87 120 141 155 173 220 243 318 293 278 288 287 292 240 200 198 181 167 159 176 183 185
75 74 40 31 21 30 64 47 47 62 20 22 -14 -82 -145 -135 -108 12 -2 27 59 93 143 145 161 185 201 234 247 305 318 351 306 305 253 332 268 215 187 184 208 206 215

GFSSE_con_3kmhel_093.txt.gz
Helicity
76 75 123 146 161 148 249 302 275 194 184 232 289 176 152 137 174 162 155 140 121 124 106 103 90 85 81 77 83 84 94 94 76 77 74 68 60 56 57 48 58 76 106
77 143 154 115 202 179 167 253 232 264 281 297 305 260 184 220 231 213 200 165 148 118 103 97 89 88 74 72 84 83 94 82 78 75 64 86 68 69 53 50 61 63 66
73 124 182 224 314 258 206 227 297 264 354 271 212 238 232 250 254 238 236 180 150 135 113 93 83 72 71 72 64 69 67 64 78 72 39 42 45 57 81 75 72 79 82
119 178 178 212 235 205 240 230 249 291 258 219 213 220 237 259 246 256 248 173 150 130 108 90 83 64 59 59 64 70 52 56 63 37 32 35 50 59 74 88 88 77 76
104 202 184 174 209 191 225 211 263 286 229 255 240 207 216 222 245 259 225 156 143 119 94 91 74 65 60 52 46 36 37 50 46 47 46 40 41 57 72 73 67 64 66
127 161 207 168 173 205 165 209 294 263 222 222 236 216 220 227 247 234 185 141 127 94 93 75 74 59 33 22 17 24 31 39 38 55 52 47 46 53 61 57 59 57 52
95 124 190 164 143 191 239 246 280 292 234 219 226 209 219 228 237 221 157 125 79 74 78 62 43 24 21 18 19 13 35 34 43 50 51 44 41 48 55 46 42 42 45
46 100 126 113 139 94 140 261 291 282 263 225 206 226 218 249 243 206 151 109 100 73 54 51 50 39 26 18 20 29 20 26 30 38 41 34 40 40 38 33 31 34 37
51 76 202 79 222 38 131 66 244 247 251 265 246 234 280 256 229 217 175 146 92 46 45 67 62 44 34 24 18 13 28 26 36 26 42 30 47 41 34 27 30 32 38
49 84 130 135 16 15 -25 -39 179 171 239 283 252 238 259 265 277 237 189 121 77 51 56 67 64 44 28 24 29 15 23 1 36 32 25 31 36 29 20 23 27 30 34
41 31 86 165 105 17 -73 35 157 110 276 260 352 306 278 284 260 175 136 114 81 62 74 71 61 64 56 46 25 24 -2 26 26 21 27 22 24 22 18 19 24 27 25
-34 50 19 71 159 149 203 206 283 123 217 309 327 276 306 257 251 170 146 143 89 61 73 90 87 81 43 27 23 32 13 19 24 25 24 17 20 23 18 19 25 22 19
-25 52 23 50 106 127 212 272 322 293 314 353 343 307 323 273 270 256 193 133 88 88 70 72 78 43 34 28 17 18 26 32 12 12 19 17 22 17 15 20 21 15 14
46 2 34 64 85 114 158 245 348 367 346 492 403 305 438 348 303 284 203 116 108 75 77 44 39 38 38 65 43 50 30 31 9 9 14 14 17 21 10 9 19 20 24
49 37 -0 15 57 105 145 197 416 383 396 347 401 291 406 315 270 249 205 121 80 78 66 61 57 31 99 61 67 36 51 37 21 8 10 19 26 27 19 17 21 25 30
57 29 32 2 -33 57 13 214 312 442 515 552 514 316 352 268 260 215 189 120 95 80 65 73 62 44 74 83 58 57 63 38 10 5 15 19 25 30 30 29 35 39 40
54 36 41 44 50 126 78 166 454 504 727 539 384 294 303 230 247 199 175 142 106 115 82 94 94 87 101 86 72 68 61 35 5 10 19 26 27 32 34 30 40 44 48
45 31 44 78 122 121 522 440 607 710 503 358 399 347 202 216 230 223 170 155 102 98 118 144 123 87 113 78 80 67 45 30 22 31 32 40 37 36 43 48 39 47 51
49 68 56 72 114 108 209 439 529 322 327 282 267 256 185 176 181 210 200 153 135 137 181 192 123 100 91 82 96 80 62 53 39 35 39 50 44 43 45 68 70 68 57
65 39 74 88 89 108 194 265 255 290 264 214 161 152 109 154 151 183 200 177 175 152 118 155 123 101 87 102 112 86 87 70 58 39 45 60 54 47 58 65 75 72 63
48 56 54 92 80 136 118 188 253 295 209 180 181 188 171 172 134 135 160 183 142 82 131 150 143 111 131 125 166 110 87 69 61 60 70 78 75 76 75 71 78 91 79
13 25 60 80 128 102 130 165 179 167 165 174 137 142 143 148 194 139 140 146 105 96 98 98 136 163 147 131 156 145 103 80 69 91 108 108 102 118 104 97 105 98 95
74 32 70 96 109 124 133 223 305 328 248 116 144 247 222 251 215 136 90 133 107 110 95 99 146 126 145 130 149 149 121 106 118 142 128 141 138 150 139 136 126 117 112
97 57 39 68 123 170 144 140 183 323 222 144 174 224 316 291 284 222 152 149 135 99 85 82 132 133 145 141 173 142 175 164 119 94 107 124 156 174 167 169 166 139 129
63 90 75 68 75 107 121 137 178 182 174 283 243 220 309 309 292 232 155 74 95 36 35 91 110 114 161 193 209 214 195 185 194 159 106 177 151 160 171 215 234 167 178
57 58 76 96 101 120 156 148 98 98 130 196 189 194 337 296 232 49 -68 -115 -76 -4 47 79 109 123 156 185 183 258 281 232 285 244 195 221 236 185 210 269 303 278 208

GFSSE_con_3kmhel_096.txt.gz
Helicity
40 67 107 48 47 84 141 199 193 184 183 153 150 180 126 111 137 113 110 105 84 82 89 94 87 104 101 101 100 99 87 86 86 75 74 81 84 86 88 48 43 93 132
110 87 69 38 60 93 244 224 169 235 192 204 146 211 177 126 130 94 104 127 111 97 96 105 106 105 92 87 97 94 94 80 84 82 80 75 67 73 90 114 95 82 102
41 142 89 70 69 148 196 223 256 146 233 248 187 231 204 108 127 98 120 155 124 104 97 99 102 79 73 73 86 83 85 66 49 32 33 82 80 84 94 89 79 84 93
38 87 156 181 141 143 171 217 236 200 270 265 250 244 174 118 160 194 172 182 134 115 90 77 80 66 66 73 68 73 70 36 -16 -36 31 58 68 89 86 82 89 75 68
46 69 161 257 172 160 191 212 219 233 268 281 251 241 176 162 205 235 218 189 136 103 95 70 69 70 71 68 68 70 62 37 6 26 68 52 41 56 77 67 60 81 80
79 95 105 264 231 166 204 172 213 244 262 253 240 246 203 198 226 232 216 158 125 108 98 62 67 63 65 68 59 50 12 -28 -2 56 54 41 52 57 63 70 65 59 51
98 152 172 129 151 131 155 185 204 249 277 258 239 227 215 188 213 226 196 155 140 111 78 68 70 57 48 58 47 18 -9 -46 37 41 39 44 47 56 54 58 59 58 63
128 207 131 348 81 105 116 177 181 262 275 265 240 234 227 182 211 214 196 142 121 100 89 76 61 52 48 54 38 15 -4 -7 23 47 66 73 64 53 44 45 40 45 46
176 182 184 130 112 -46 91 134 159 285 275 288 241 221 223 201 206 204 164 139 146 126 89 64 47 40 30 35 23 -5 -30 -15 41 55 60 38 40 43 34 29 38 38 45
128 147 193 99 -2 133 67 116 171 115 232 286 251 233 212 212 239 205 208 185 143 120 77 50 40 40 39 27 5 -14 -9 -17 47 42 50 51 25 31 26 33 39 49 56
120 95 88 87 48 73 77 120 166 140 162 286 291 251 246 213 180 158 131 161 137 87 68 67 63 53 38 24 3 -26 -41 46 41 38 49 24 26 38 33 38 42 48 43
200 140 34 93 4 7 -2 -7 -9 100 86 227 271 161 125 194 164 112 146 174 117 81 91 82 72 52 2 12 3 -17 18 42 34 39 61 24 31 36 30 34 39 30 31
147 182 44 31 65 41 46 74 121 153 115 130 224 190 175 192 178 166 146 158 101 71 45 58 55 3 20 11 -6 15 44 18 28 49 52 30 30 26 26 37 36 27 27
78 59 43 5 31 76 91 144 144 199 98 228 165 186 233 277 248 201 135 162 102 58 55 39 12 21 19 16 19 37 27 29 21 53 52 36 25 22 26 31 30 24 25
51 71 13 42 63 102 82 181 286 277 222 227 167 202 215 303 297 199 175 168 119 80 29 16 27 28 37 33 17 39 26 40 28 45 41 35 31 23 22 25 29 20 20
63 61 17 39 52 72 101 139 271 292 396 263 276 294 204 294 308 291 189 144 130 51 32 19 37 40 56 46 40 45 41 33 23 43 52 36 36 33 29 21 23 30 32
99 39 22 29 33 21 1 123 201 323 234 340 357 372 302 356 352 386 222 126 100 55 60 47 56 64 73 30 56 50 52 35 38 40 45 56 49 43 43 39 40 39 41
131 42 44 28 44 40 82 126 229 290 438 356 467 442 367 333 244 368 147 118 121 101 68 85 74 81 74 42 54 64 58 51 42 31 36 42 44 44 43 46 47 43 40
144 62 54 36 57 78 196 105 178 312 384 344 395 458 453 279 245 170 155 114 103 121 98 93 70 78 97 52 62 69 79 71 50 43 39 29 44 53 39 81 56 54 44
111 47 64 36 65 89 174 274 284 624 493 491 474 466 485 284 161 197 175 124 125 135 112 103 93 92 85 75 67 83 76 85 61 60 48 52 40 39 50 73 62 59 64
44 15 47 62 50 77 143 311 433 523 426 569 658 408 275 195 112 216 108 106 122 112 102 117 84 96 117 116 106 97 87 98 69 67 61 65 65 61 55 59 68 66 107
60 15 52 66 53 74 129 152 322 327 445 430 320 232 222 217 125 123 112 119 131 118 114 107 115 102 146 127 115 88 93 87 81 98 98 94 87 89 91 96 95 97 115
89 30 55 80 79 47 98 151 212 289 177 191 149 236 200 205 69 97 70 60 109 109 103 93 110 111 62 109 126 121 99 82 64 96 114 117 123 128 126 127 131 132 122
83 79 63 101 85 35 53 105 149 151 186 170 177 148 172 160 179 139 67 79 89 91 126 106 89 92 32 75 111 95 107 174 101 95 78 101 117 130 140 147 163 179 171
83 84 86 77 100 127 85 119 160 192 213 162 132 116 137 179 166 178 129 93 100 80 134 126 92 -4 35 76 91 103 99 111 120 161 116 116 119 112 120 158 198 242 189
75 80 78 97 89 130 109 69 64 119 209 159 161 124 128 218 205 205 166 140 117 167 185 70 32 -49 17 40 78 119 135 132 103 144 214 215 162 158 182 251 232 216 263

GFSSE_con_3kmhel_099.txt.gz
Helicity
33 207 215 128 82 51 43 111 131 150 105 129 98 105 119 117 134 124 116 110 76 76 79 82 93 106 115 113 119 130 124 102 87 89 105 107 116 119 108 64 77 104 127
53 152 171 122 101 36 55 85 131 126 148 166 136 124 105 124 117 120 95 89 82 82 76 82 86 90 91 98 116 112 104 61 41 56 85 120 125 138 170 184 106 105 115
27 91 91 152 70 29 80 104 132 114 188 168 184 141 99 116 100 109 103 82 91 76 70 79 72 73 74 99 104 85 79 42 15 -3 81 78 84 105 117 100 91 89 92
27 28 84 165 122 117 103 121 151 157 174 146 228 134 113 127 91 85 130 91 93 72 63 72 77 67 75 85 88 67 11 -38 -76 -69 29 54 61 79 90 78 73 75 79
46 25 30 200 186 178 138 153 188 178 187 167 261 188 122 149 106 92 129 102 83 68 74 70 64 57 61 79 77 9 -34 -63 -96 -2 68 37 50 59 71 63 72 88 84
65 61 194 174 155 167 156 185 195 178 228 241 214 175 203 165 136 112 119 137 68 73 81 75 61 56 65 51 35 0 -32 -47 -62 58 60 43 70 75 83 98 76 77 68
81 96 125 143 190 168 132 133 194 204 231 262 230 168 234 128 161 185 166 153 117 101 90 74 61 35 58 56 4 -12 -10 24 44 46 55 65 51 50 57 55 48 55 68
94 186 133 107 185 155 159 203 96 243 247 286 250 195 194 208 158 169 149 151 163 132 106 71 54 56 53 29 17 -3 -18 -40 32 49 60 46 45 49 52 56 54 55 54
144 123 162 123 142 201 204 -124 24 215 265 294 265 194 208 200 191 169 158 160 152 143 108 83 64 56 48 12 -19 -27 -31 15 38 54 51 40 48 46 52 52 55 56 55
129 134 184 187 202 154 141 78 12 131 198 231 234 201 218 205 178 185 176 148 142 145 111 86 69 52 28 -6 -24 -37 -36 -42 45 35 67 49 50 47 44 50 52 51 58
133 148 171 118 90 134 21 120 10 80 117 241 240 243 227 140 152 166 110 140 150 134 118 92 70 56 42 1 -32 -89 -97 11 28 78 69 35 52 42 41 48 45 42 48
164 164 146 99 56 16 21 63 24 239 195 182 222 184 144 130 183 114 144 149 138 137 120 105 65 49 1 5 -29 -59 -26 19 50 60 69 38 44 41 38 40 37 37 37
183 220 156 70 61 39 1 -36 27 111 218 124 168 165 189 150 88 165 165 133 109 127 92 67 46 4 17 -2 -13 -13 33 11 44 67 59 43 46 38 39 32 36 31 28
177 207 164 66 23 11 8 5 53 88 191 74 97 99 180 183 149 121 180 143 107 89 81 61 6 9 14 15 -9 31 -3 26 51 80 51 44 42 38 33 35 33 35 25
143 210 170 56 -9 5 39 53 58 61 198 143 130 137 137 211 210 106 144 200 95 79 66 51 32 30 6 15 18 10 -2 44 74 70 47 52 38 37 36 35 31 28 28
132 169 174 62 20 7 21 31 104 130 197 227 195 174 132 206 207 168 134 180 110 84 59 43 34 42 21 17 25 17 21 44 34 79 71 51 49 44 35 34 26 27 26
129 159 188 70 51 36 56 65 112 154 186 238 226 182 164 229 235 173 144 110 98 102 67 42 79 29 33 30 32 39 17 35 50 48 79 67 58 45 44 34 35 25 23
197 195 169 71 38 36 43 66 130 222 218 229 285 230 206 231 207 240 222 239 134 123 87 95 72 40 51 37 50 34 27 43 63 51 53 74 54 52 55 48 46 41 28
193 260 142 41 53 59 59 46 89 159 214 295 315 340 294 334 291 282 309 359 147 130 123 107 58 42 63 36 45 49 42 54 66 60 56 73 81 59 64 90 65 60 53
207 219 80 30 47 33 26 59 118 148 179 288 381 448 416 400 345 378 465 325 71 119 125 110 80 57 53 48 61 81 61 67 74 69 60 65 69 71 76 129 102 67 70
164 142 71 12 40 56 57 70 114 165 175 312 414 400 514 473 346 403 197 183 92 125 139 112 98 70 89 82 93 115 69 82 86 68 75 77 87 84 61 101 135 78 125
135 162 97 34 38 81 105 110 151 211 286 294 566 462 469 460 393 315 250 59 80 116 137 109 108 98 130 122 107 73 38 51 65 81 100 103 102 102 92 89 108 114 116
129 154 139 82 74 92 85 105 142 621 563 419 448 470 519 577 529 269 115 5 99 118 132 132 117 107 160 105 122 88 35 8 40 85 112 123 113 123 121 132 131 122 132
106 123 149 123 105 86 67 52 16 168 393 453 487 517 487 386 199 98 55 51 166 162 84 111 117 118 121 99 130 40 65 125 92 100 61 67 94 147 157 143 150 160 145
101 98 125 119 107 100 47 33 41 20 116 128 162 188 163 127 137 85 62 73 129 -7 62 102 109 124 173 86 58 29 14 63 92 114 119 140 136 131 158 197 169 129 198
100 79 105 128 93 135 168 108 98 84 102 115 146 190 226 256 212 173 122 110 167 70 76 113 148 145 150 54 81 -11 8 44 51 92 90 108 185 249 246 274 248 226 240

GFSSE_con_3kmhel_102.txt.gz
Helicity
60 63 129 164 168 149 88 41 70 98 102 96 100 96 122 138 145 163 168 147 131 107 99 103 106 107 113 115 123 126 132 152 166 140 136 140 140 126 117 119 122 126 140
87 81 137 168 138 124 64 66 66 80 92 113 118 122 131 140 125 123 125 93 86 89 80 84 92 97 104 107 116 123 118 99 112 142 167 155 129 142 143 115 102 95 106
71 91 83 146 163 143 108 94 101 84 108 102 127 149 126 114 110 84 95 86 77 73 61 64 84 75 98 106 86 45 35 14 27 50 84 110 104 108 98 88 86 98 98
40 64 72 112 137 153 113 112 117 108 127 140 145 147 90 87 87 74 82 97 68 67 60 50 75 61 65 66 27 -4 -34 -81 -57 25 64 72 76 78 77 77 82 76 70
66 67 110 124 142 137 108 142 147 134 148 169 166 142 106 46 58 65 78 105 65 52 49 50 57 54 50 16 -21 -76 -87 -119 -67 37 62 75 61 69 81 78 78 77 67
69 154 134 122 176 162 135 149 183 146 187 185 188 159 161 60 79 71 67 83 75 64 42 67 41 52 30 -18 -19 -0 -0 25 84 102 83 101 73 75 76 82 88 94 84
103 158 157 130 140 110 128 142 176 182 238 207 201 167 203 81 87 90 93 85 75 76 56 52 49 53 8 -6 -18 24 53 75 29 61 83 65 43 51 59 65 69 70 75
124 184 169 138 118 100 94 110 123 171 142 201 205 214 360 146 61 93 111 123 80 98 56 41 67 40 -0 -7 6 54 126 144 71 86 73 58 45 54 57 55 61 60 70
193 173 134 167 143 156 167 164 176 313 188 8 199 346 304 64 49 121 123 133 136 102 79 76 73 36 -11 -24 10 39 64 128 131 92 63 28 59 44 48 48 56 64 61
162 150 178 181 187 257 237 163 144 125 133 -102 133 289 133 77 116 186 160 153 122 115 111 94 63 21 -22 -26 -1 35 101 102 51 54 67 38 41 42 45 50 42 58 51
140 148 177 174 172 183 137 131 120 170 177 59 103 311 258 86 149 188 137 154 116 92 92 82 71 37 4 -3 8 21 22 -10 135 116 65 35 42 40 42 46 38 43 39
266 223 173 190 145 167 85 125 99 51 105 71 149 353 137 86 187 142 149 151 133 97 103 84 60 40 39 9 -14 -12 20 66 160 102 55 42 53 42 40 43 37 34 32
184 316 254 210 181 145 53 81 39 80 64 112 221 297 42 116 161 200 167 182 171 118 120 82 77 42 29 -11 -11 -7 -2 68 143 89 50 46 48 44 46 44 41 30 21
238 277 267 196 185 101 71 109 -23 -27 158 380 293 195 85 215 179 176 169 171 156 106 112 85 29 14 -2 -19 9 -0 -23 84 152 94 47 54 55 44 39 44 41 36 24
188 287 248 153 173 72 28 58 27 19 37 135 228 90 171 225 195 184 177 152 139 135 109 72 20 6 -5 14 -5 5 -7 141 135 70 70 72 59 48 40 46 48 36 24
156 220 218 136 122 63 30 68 54 89 97 85 122 202 177 228 196 175 196 146 141 136 99 61 21 38 17 10 41 4 21 84 128 88 86 60 66 49 46 48 49 31 29
216 244 228 200 126 77 43 55 61 98 79 92 125 238 140 218 177 184 218 153 118 123 101 52 16 82 67 59 26 14 24 43 125 165 87 88 65 58 54 46 44 33 29
297 257 244 295 106 75 87 66 65 93 109 130 178 203 210 158 168 196 220 134 84 106 90 56 88 117 76 60 47 27 43 54 87 174 97 81 82 74 47 44 46 42 40
271 256 294 177 58 54 92 127 95 75 140 182 189 233 274 215 210 193 160 103 111 101 99 111 158 119 117 57 67 36 49 54 82 65 140 116 89 88 103 68 71 74 63
206 250 182 105 48 86 79 62 72 88 96 219 264 274 279 270 204 259 252 147 193 172 153 192 182 121 93 54 46 74 60 68 79 57 59 160 162 178 162 124 94 95 90
217 172 110 89 83 73 75 62 60 97 125 209 308 270 345 234 244 295 279 259 221 231 324 206 184 143 113 61 140 150 88 93 86 60 91 99 157 157 169 156 186 166 142
163 107 74 83 65 62 57 77 116 134 126 166 271 316 372 329 316 299 361 311 376 419 229 200 196 124 128 89 157 197 147 135 59 62 90 98 106 158 156 144 223 200 168
138 99 76 108 92 71 90 53 56 91 100 131 160 338 451 411 411 423 436 526 541 431 208 140 150 110 160 161 187 170 145 80 86 72 41 89 107 159 171 192 177 230 236
138 99 83 112 133 77 67 65 42 68 177 292 182 295 478 420 397 440 527 497 546 336 119 134 107 110 163 173 146 69 132 135 111 16 49 29 89 97 124 158 186 207 210
164 115 81 136 142 106 79 84 58 245 237 265 325 493 426 389 460 437 431 380 178 118 84 145 168 117 200 126 141 150 85 140 148 111 66 81 81 97 144 170 157 168 224
185 125 99 129 114 113 79 106 17 56 170 205 214 349 370 491 457 446 489 189 123 107 111 130 46 83 114 165 173 184 181 161 68 96 104 149 208 210 196 203 259 243 226

GFSSE_con_3kmhel_108.txt.gz
Helicity
-22 -18 12 79 100 130 148 178 185 177 164 175 204 244 258 277 246 220 198 193 186 167 162 150 150 145 135 108 122 132 117 120 118 108 109 104 103 111 113 123 108 81 85
23 -18 12 81 143 130 112 137 168 151 124 147 166 198 240 235 216 196 184 173 158 152 152 145 139 125 109 118 158 171 171 189 184 153 134 110 96 97 119 115 99 92 102
15 -24 29 91 118 124 105 118 130 128 117 142 177 170 153 151 159 174 167 154 140 135 124 96 110 113 113 140 161 184 197 205 214 194 166 119 86 100 109 107 101 108 105
4 26 57 85 107 121 127 133 131 148 138 145 140 146 148 146 123 132 147 142 137 111 84 84 81 89 99 138 146 151 158 170 185 179 143 106 77 97 101 120 104 104 99
64 73 79 104 106 104 149 126 123 153 160 141 129 139 133 121 115 108 115 107 105 94 74 65 69 83 99 115 115 112 112 143 151 152 123 98 107 101 105 93 83 90 77
111 90 96 117 106 112 134 155 158 192 183 180 127 131 133 123 135 158 109 88 71 78 67 66 69 115 114 113 122 135 128 125 132 143 110 105 109 102 83 87 82 75 67
131 103 131 136 108 111 116 153 186 181 184 267 244 211 434 53 125 171 158 64 55 57 80 78 83 93 102 90 94 139 127 95 92 109 141 103 84 74 62 72 57 54 59
209 203 188 152 129 121 95 127 166 170 195 256 292 294 110 -0 38 187 179 69 54 61 57 74 86 112 132 65 76 112 116 110 121 117 82 66 55 64 65 60 54 51 54
259 271 229 177 135 150 118 109 133 142 150 231 321 298 200 198 99 143 92 75 78 62 18 62 86 168 73 76 88 154 125 113 104 80 83 41 59 59 52 46 42 44 46
254 258 231 199 188 170 150 164 126 100 109 208 371 363 273 126 59 86 183 113 103 42 -4 58 116 125 67 96 135 139 114 88 79 97 75 32 40 45 48 44 48 54 42
211 229 212 212 201 178 196 187 200 208 112 206 328 336 269 228 304 154 95 120 96 24 -21 40 77 85 101 136 152 144 116 64 82 75 46 30 38 44 41 39 44 43 41
199 176 200 210 179 182 193 208 244 200 162 181 327 354 246 243 279 137 38 99 75 9 -49 -13 52 91 128 161 135 136 110 58 48 42 14 23 42 41 40 41 40 35 30
160 189 197 246 188 198 197 197 223 154 166 253 318 297 227 228 252 121 90 107 74 -13 -33 -48 23 107 132 160 122 109 90 62 14 13 17 30 43 40 40 41 34 27 17
230 193 230 246 217 202 221 209 142 109 163 169 223 400 436 213 184 171 138 102 126 73 24 101 89 168 143 153 78 115 87 65 26 23 32 54 51 52 50 36 29 21 16
295 269 299 294 248 211 229 235 137 128 201 159 197 237 464 351 232 135 106 120 142 116 98 87 87 167 132 150 51 100 83 52 28 22 40 55 42 53 42 42 27 26 14
369 356 326 292 234 234 246 180 95 85 144 89 165 158 145 293 202 95 112 145 123 100 88 49 150 138 129 159 80 74 64 67 56 42 71 49 49 38 37 32 29 29 27
315 321 305 248 203 250 230 112 73 89 93 177 181 149 152 266 226 166 163 161 112 87 122 172 175 141 146 144 86 73 78 83 41 56 74 62 36 30 30 34 30 31 31
351 360 297 270 260 239 148 75 74 66 59 112 190 160 144 215 199 166 148 155 144 131 147 169 161 141 117 116 131 78 81 92 51 48 66 71 43 32 27 44 35 36 36
377 367 328 300 295 237 88 62 68 74 20 54 36 173 183 142 138 146 170 163 163 156 152 157 165 156 100 98 127 84 110 101 48 47 38 51 55 47 52 50 52 46 35
413 348 319 287 307 222 124 73 88 82 10 16 51 218 266 237 142 112 144 171 179 165 174 178 129 147 109 104 160 117 95 87 73 57 50 43 50 42 43 60 58 53 63
395 359 306 288 281 245 163 105 96 84 44 12 25 38 134 145 144 134 169 192 145 144 158 165 194 154 140 152 204 206 159 64 72 79 78 74 72 60 52 54 68 75 65
379 314 284 250 259 217 156 111 74 118 42 51 62 52 26 123 161 177 162 154 152 158 126 145 186 233 172 185 207 216 218 153 53 44 74 89 85 97 88 80 84 101 106
315 283 240 210 243 214 135 146 110 88 136 50 71 110 68 85 144 195 230 208 167 167 195 167 150 162 193 222 193 223 265 167 141 104 69 71 79 115 124 125 120 122 137
285 270 193 178 214 190 144 136 143 107 77 127 120 74 138 153 156 232 277 241 166 214 182 199 184 202 250 186 273 209 170 108 197 165 85 109 101 105 108 145 158 151 182
318 265 190 171 205 181 145 124 101 71 77 101 52 140 101 221 182 278 301 375 242 217 254 252 288 305 303 270 225 315 246 203 160 149 108 70 58 84 109 140 170 180 202
289 241 217 170 194 194 145 120 85 53 59 46 1 41 153 282 321 301 336 382 299 273 317 391 408 351 302 216 286 284 213 244 182 154 153 98 99 71 81 78 124 158 204

GFSSE_con_3kmhel_111.txt.gz
Helicity
-31 -48 -77 -1 116 176 174 164 198 208 183 214 242 234 225 225 248 224 198 170 149 155 153 136 151 144 128 121 115 114 93 89 92 95 99 96 90 88 95 103 110 86 94
29 -48 -65 40 125 181 175 150 175 203 175 165 217 239 234 235 233 209 183 175 172 159 144 166 172 130 129 121 145 151 129 141 130 124 112 97 90 89 103 108 111 91 95
49 -25 -32 46 117 163 177 154 143 169 177 168 219 270 268 240 216 196 183 168 158 150 145 147 132 132 131 143 178 180 184 180 176 161 153 117 86 97 106 111 106 105 86
66 12 -5 53 114 164 182 168 153 170 181 181 191 213 242 232 199 183 174 167 160 143 142 125 120 122 126 166 174 182 193 194 188 176 146 110 83 102 104 106 119 108 111
96 66 11 65 120 165 188 184 167 162 151 152 189 228 205 165 157 164 164 163 141 116 100 95 113 129 147 156 165 174 184 190 173 158 148 131 97 93 121 152 122 128 88
123 82 37 71 116 145 166 164 166 157 154 188 189 187 186 152 127 137 158 170 124 86 86 108 117 129 147 163 160 161 168 180 166 158 142 117 118 113 109 116 110 79 77
141 95 88 114 123 127 149 174 173 154 163 186 185 204 274 197 161 79 107 125 149 85 90 129 137 149 164 166 141 133 121 134 145 130 135 115 90 100 85 79 68 66 51
160 129 128 137 133 146 148 172 181 180 195 160 241 201 340 411 194 44 52 88 167 85 116 126 152 163 186 150 126 96 99 105 115 118 123 83 68 59 64 61 54 53 59
187 178 166 169 144 171 178 174 164 160 208 185 256 329 419 228 112 153 13 72 179 104 110 129 142 141 185 113 85 80 79 77 87 118 125 73 74 55 51 45 42 49 52
213 190 213 237 192 183 162 173 161 170 165 290 322 333 368 268 284 302 -11 42 120 126 111 115 120 136 123 85 81 95 72 128 154 99 84 58 61 49 41 38 41 41 46
236 197 224 265 206 178 185 186 180 142 233 313 347 310 317 315 212 55 59 84 81 137 108 101 111 145 99 104 117 103 111 90 124 110 86 44 38 42 40 36 35 35 37
246 213 247 271 215 185 176 201 217 233 286 351 376 367 357 316 311 141 190 97 54 127 102 94 116 141 117 151 108 116 105 91 82 73 25 15 41 41 39 38 35 35 30
216 262 288 287 221 206 204 218 245 280 330 355 379 374 332 307 276 243 223 145 98 129 145 125 116 155 114 159 81 132 112 76 52 45 -3 18 33 43 41 34 39 35 27
244 304 347 297 259 229 235 240 243 281 330 270 270 320 411 378 318 279 263 251 151 145 110 114 100 104 117 117 122 126 83 59 57 38 19 29 30 37 36 32 35 30 27
220 291 351 361 296 257 246 255 270 275 251 198 248 329 379 391 366 313 284 173 150 176 83 109 169 175 146 114 117 105 96 75 44 32 43 45 36 32 33 31 34 30 31
229 314 340 379 327 308 267 290 288 297 190 165 241 231 254 354 267 194 205 286 180 121 131 164 168 200 154 104 134 124 101 74 62 34 48 41 45 34 32 29 29 36 31
305 395 341 359 351 316 279 282 280 185 155 157 172 121 206 354 410 243 216 235 214 180 155 182 212 240 156 120 120 120 89 77 62 37 39 38 43 29 26 29 31 35 35
393 418 383 352 343 265 273 263 177 88 115 125 212 172 158 172 406 335 374 202 184 211 188 160 174 224 136 143 133 112 111 81 61 52 51 47 40 34 29 36 30 34 31
475 455 407 314 300 237 226 198 137 88 93 87 157 218 100 107 373 332 256 195 184 156 154 124 174 193 199 173 120 119 102 84 73 55 44 29 40 49 48 38 34 29 26
477 462 382 251 278 251 237 163 143 108 66 78 94 193 122 206 171 187 191 185 192 170 178 157 123 192 274 205 163 116 95 98 85 56 27 25 45 51 47 47 42 36 30
470 477 362 295 324 300 269 213 176 157 78 49 -10 54 115 194 231 208 200 178 172 163 140 106 155 177 299 253 260 187 146 99 72 64 31 44 56 65 53 50 54 55 47
434 464 342 300 345 267 255 221 178 157 81 53 -16 50 87 153 161 149 112 129 143 147 149 159 162 303 276 224 242 253 211 152 70 51 37 38 51 70 64 56 72 72 70
466 488 324 316 309 256 268 282 268 211 161 80 85 74 80 129 142 86 112 142 131 134 115 162 181 217 267 221 218 225 262 173 156 106 43 60 74 84 77 92 95 98 104
426 383 287 310 314 277 252 260 239 217 169 96 100 98 62 100 173 148 76 98 133 191 155 163 195 234 283 237 301 269 233 155 203 179 135 104 83 89 111 104 110 129 144
425 366 292 288 298 279 222 202 215 188 165 168 112 97 112 102 24 94 57 111 150 214 191 224 185 225 276 287 296 361 334 245 214 172 283 131 111 91 122 140 143 152 170
385 276 278 281 261 244 201 176 185 185 160 123 123 128 94 139 139 183 205 192 197 219 248 230 260 267 323 313 320 298 309 320 251 251 304 216 117 104 86 110 151 166 183

GFSSE_con_3kmhel_114.txt.gz
Helicity
-19 -3 5 26 74 110 131 160 161 146 198 216 203 187 191 187 185 171 161 141 120 110 129 148 150 127 114 119 129 120 113 98 113 107 108 101 96 105 107 110 115 101 102
39 29 24 56 97 104 143 162 138 125 181 212 202 204 198 204 205 189 180 168 152 135 120 125 149 141 125 115 115 128 135 130 121 116 107 100 92 86 92 103 104 91 107
70 62 13 38 115 141 165 166 141 128 149 199 204 213 219 200 190 187 189 178 184 164 130 137 142 136 142 148 157 158 145 143 144 140 130 98 69 88 99 103 94 99 98
86 85 48 34 123 164 186 178 159 157 149 154 183 212 207 200 194 208 197 177 174 153 138 149 143 146 147 172 172 165 161 158 158 150 135 105 82 96 99 92 103 93 81
100 97 82 85 121 171 177 185 181 172 172 180 196 230 201 185 171 158 152 158 155 147 127 140 155 171 169 183 176 173 178 168 159 143 118 95 79 89 94 91 102 123 115
123 115 106 115 147 161 170 177 187 175 174 204 211 189 159 161 193 177 161 164 146 133 107 137 180 172 178 205 192 179 165 155 149 140 130 121 116 84 111 130 152 131 108
124 129 133 121 137 154 171 181 191 173 215 212 161 217 179 96 167 157 137 97 107 104 91 125 168 159 181 184 174 160 149 143 138 140 130 115 98 92 101 111 112 92 73
174 158 144 120 124 145 144 185 205 197 213 218 218 310 328 178 158 80 77 104 45 83 85 144 158 161 170 167 156 148 132 119 133 139 129 95 80 71 93 83 67 59 68
189 185 158 160 136 138 143 159 204 225 229 217 275 308 261 365 311 240 183 39 61 70 131 139 158 187 152 122 113 117 112 111 112 106 109 103 71 74 70 65 62 49 53
168 199 193 177 178 164 145 151 179 233 241 214 312 359 340 341 378 292 311 101 96 111 130 147 192 161 114 90 110 102 111 111 114 102 83 56 56 79 54 50 43 42 49
196 179 223 199 204 200 151 139 168 208 234 243 327 349 352 358 317 244 216 122 89 115 136 153 177 153 78 78 101 110 118 112 98 101 66 62 58 42 40 44 45 41 39
208 212 220 245 255 254 196 150 167 193 254 278 359 423 418 357 318 262 270 248 197 112 134 157 170 137 116 114 116 133 109 87 87 88 37 52 30 36 36 39 32 38 34
263 258 270 277 299 306 252 190 181 235 265 290 367 499 498 429 316 269 226 175 230 183 140 176 162 162 112 132 111 148 94 99 75 46 47 44 36 30 29 23 30 25 30
324 256 302 274 324 322 292 253 215 243 306 330 360 471 559 455 365 301 209 184 266 201 173 174 174 140 140 132 68 124 70 39 41 50 39 35 20 28 26 22 27 21 16
212 299 308 340 345 344 331 308 278 258 295 336 346 400 424 370 382 299 257 276 263 221 194 181 165 133 149 131 101 119 40 49 56 61 28 24 36 31 21 22 20 16 15
210 231 323 351 364 368 360 335 284 304 278 290 286 277 292 344 446 371 337 286 272 283 247 229 155 137 150 135 133 98 77 70 49 52 49 31 41 25 23 22 17 19 20
206 264 341 406 410 359 326 318 324 335 316 212 168 169 257 368 411 334 322 302 286 316 334 282 221 191 176 163 110 128 77 65 53 59 51 53 46 41 33 21 26 26 29
173 252 374 412 399 354 321 307 301 334 235 134 127 159 189 356 348 351 335 331 289 271 306 242 218 196 174 157 141 125 92 88 81 56 54 65 60 51 32 26 27 39 27
156 309 377 381 385 370 291 303 300 282 170 107 126 147 232 203 258 327 312 330 194 233 287 269 241 189 175 132 126 115 103 101 70 55 56 59 48 54 43 28 40 41 31
154 232 300 316 372 355 303 282 261 248 164 116 129 201 206 159 184 471 316 283 304 233 294 288 227 250 198 125 150 137 141 119 85 70 60 45 34 53 26 35 44 43 33
147 202 284 371 359 384 363 271 250 194 143 96 100 133 169 141 71 382 476 313 233 235 251 286 251 233 263 214 262 206 177 114 96 83 75 46 30 37 21 23 49 52 42
140 181 265 386 403 348 313 242 279 206 156 101 84 157 136 102 276 488 379 276 209 215 260 286 280 317 252 192 193 242 186 172 113 75 61 37 20 31 14 7 52 63 66
142 180 266 407 404 340 262 268 275 233 206 175 136 131 118 116 184 229 246 234 201 217 223 251 266 217 273 198 154 184 237 188 170 106 41 44 89 26 4 27 54 63 74
179 203 269 335 353 310 289 261 283 233 218 160 137 102 17 83 131 150 170 188 178 197 210 244 239 260 338 260 224 248 185 139 199 168 100 60 64 80 69 67 65 84 102
222 258 284 281 292 276 265 258 276 232 180 157 155 142 115 71 67 179 208 139 147 161 198 236 238 245 334 311 330 332 295 233 177 191 151 128 140 120 92 105 89 104 131
202 253 271 268 269 258 251 238 280 259 225 175 148 149 127 159 131 96 148 158 108 125 167 229 235 254 302 278 343 325 305 266 221 236 236 312 195 138 116 128 118 92 113

GFSSE_con_3kmhel_117.txt.gz
Helicity
38 60 25 19 50 77 112 111 99 78 144 190 182 177 183 173 151 143 126 112 105 110 104 108 111 100 99 101 94 92 107 107 110 112 108 106 94 102 109 103 70 87 91
44 58 60 63 95 86 103 92 89 97 130 164 155 172 191 181 166 153 138 132 134 123 113 123 117 120 120 111 132 146 121 99 113 115 111 110 92 90 101 105 96 89 99
111 89 76 75 70 86 104 116 101 101 142 145 145 169 182 179 181 171 166 139 124 117 120 118 134 134 135 147 156 145 135 142 137 117 59 66 83 86 97 100 85 88 86
119 92 90 104 80 86 103 119 110 98 131 159 169 180 176 183 193 189 189 165 159 127 111 108 116 148 152 167 165 157 155 149 135 74 51 53 66 83 89 84 84 84 87
104 101 116 152 129 97 96 122 140 126 140 171 168 186 190 183 187 169 169 166 149 132 116 113 111 143 174 190 186 170 161 153 137 60 48 44 45 74 94 95 97 85 86
96 69 123 170 152 107 102 125 148 142 136 160 188 187 158 125 102 83 81 109 111 96 101 119 152 172 163 180 176 164 152 148 75 57 52 68 65 82 84 99 128 141 115
106 89 125 172 157 140 105 143 163 173 175 156 180 187 152 339 42 177 52 102 81 80 93 121 161 188 136 145 154 155 156 118 63 49 50 49 73 79 91 116 135 156 152
144 131 106 145 145 145 133 151 164 203 184 150 160 189 191 243 182 397 166 181 46 88 138 118 167 157 120 126 144 156 146 105 57 46 40 33 75 79 93 116 134 133 140
157 152 131 131 129 132 143 159 165 193 200 155 180 247 190 314 157 295 253 182 92 174 126 113 159 158 121 139 146 149 137 92 58 40 34 35 67 72 85 101 84 90 97
176 173 184 159 137 125 131 175 176 173 178 158 226 288 308 333 259 321 321 175 36 189 72 138 161 152 123 130 134 131 111 74 46 43 36 50 63 66 62 77 53 53 72
186 181 202 191 169 134 147 180 201 181 157 165 232 302 301 268 302 310 271 127 89 194 181 181 154 134 115 116 122 110 60 41 40 32 40 56 44 54 67 53 51 45 50
198 220 228 230 206 161 161 213 189 207 188 185 202 270 310 331 333 323 266 147 169 222 189 140 164 126 83 75 91 79 42 39 45 52 45 44 35 32 35 41 34 44 51
180 232 255 278 235 202 213 222 239 245 254 234 204 257 302 353 373 321 213 123 177 229 259 190 131 85 72 75 66 58 50 52 44 42 48 24 32 29 39 43 39 42 26
128 155 206 250 264 241 237 240 265 273 318 312 289 313 348 396 389 313 215 214 219 218 178 144 162 96 63 66 64 61 57 32 45 31 39 27 25 10 42 30 23 26 12
65 115 153 234 240 256 251 270 269 296 323 323 344 333 359 377 376 413 273 280 258 251 139 185 171 107 73 78 79 66 42 44 57 30 31 23 41 43 42 13 11 7 -2
68 85 164 210 260 276 272 262 281 316 329 346 387 350 357 373 344 290 287 267 264 245 101 186 217 131 61 73 81 59 35 41 27 30 27 27 54 48 18 8 9 14 12
63 49 142 200 283 298 303 273 300 295 349 323 328 340 298 277 310 306 329 407 264 290 186 198 158 145 83 85 83 63 57 46 20 29 40 46 44 27 11 24 29 24 24
41 32 79 184 239 292 334 325 338 293 344 308 273 232 183 214 188 235 354 388 362 342 253 249 180 131 105 102 94 86 60 56 21 32 48 40 34 27 25 39 41 37 28
57 26 52 149 198 281 298 307 314 278 332 293 231 171 122 160 230 282 366 480 375 327 304 265 189 172 143 109 93 104 65 63 30 38 32 37 34 24 33 44 44 47 35
68 36 62 109 159 220 287 315 296 278 284 268 228 168 125 169 205 232 319 627 435 353 312 275 220 191 144 135 140 118 88 83 50 46 42 45 32 32 30 26 36 36 30
44 51 69 54 138 235 312 390 335 298 254 225 207 132 132 122 172 221 331 373 361 339 315 276 274 237 194 166 179 154 129 98 62 59 58 46 32 25 17 12 36 31 26
77 45 34 40 128 180 299 337 320 256 244 176 175 140 115 132 172 137 296 526 343 305 285 285 254 254 217 183 186 155 189 122 74 65 62 34 32 15 5 -4 7 12 1
68 115 25 58 105 164 248 300 281 260 220 187 186 151 118 172 128 141 190 404 391 338 242 229 252 268 275 184 146 205 244 163 104 77 34 37 24 13 5 -1 8 13 1
49 54 39 65 105 186 234 247 222 244 220 194 224 155 150 170 199 277 283 433 337 267 283 240 250 264 284 254 177 222 172 134 144 149 90 65 51 54 102 111 53 48 18
27 23 64 66 115 203 244 224 189 217 177 183 196 166 141 152 195 252 251 271 304 269 241 214 210 222 242 305 258 256 224 153 127 148 156 129 81 54 69 23 54 88 86
-6 -45 87 92 110 160 190 197 196 204 190 217 168 179 144 142 121 161 184 222 245 229 201 206 208 247 268 238 248 238 245 224 168 163 174 145 113 147 89 101 151 52 53